Regional Weather Roundup
Issued by NWS

Home | Current Version | Previous Version | Text Only | Print | Product List | Glossary Off
Versions: 1 2 3 4 5 6 7 8 9 10 11 12 13 14 15 16 17 18 19 20 21 22 23 24 25 26 27 28 29 30 31 32 33 34 35 36 37 38 39 40 41 42 43 44 45 46 47 48 49 50

000
ASUS43 KLOT 252112
RWRIL

ILLINOIS REGIONAL WEATHER ROUNDUP
NATIONAL WEATHER SERVICE CHICAGO/ROMEOVILLE IL
400 PM CDT MON MAY 25 2015

NOTE: "FAIR" INDICATES FEW OR NO CLOUDS BELOW 12,000 FEET WITH NO
SIGNIFICANT WEATHER AND/OR OBSTRUCTIONS TO VISIBILITY.

* THESE STATIONS ARE NOT UNDER NWS QUALITY CONTROL. THEY ALSO MAY NOT
  REPORT WEATHER SUCH AS PRECIPITATION OR FOG.

ILZ001-002-007-009-015-016-024-252200-
NORTHWEST ILLINOIS

CITY           SKY/WX    TMP DP  RH WIND       PRES   REMARKS
MOLINE         SUNNY     80  58  46 SW21G29   29.88F HX  80
STERLING*      PTSUNNY   79  64  61 SW10G17   29.91S HX  81
SAVANNA*       SUNNY     80  60  50 SW16G23   29.88S HX  81
$$

ILZ003-004-008-010-011-017-018-252200-
NORTH CENTRAL ILLINOIS

CITY           SKY/WX    TMP DP  RH WIND       PRES   REMARKS
ROCKFORD       MOSUNNY   77  62  59 SW16      29.91R
FREEPORT*      MOSUNNY   76  62  59 SW18G28   29.91R
ROCHELLE*      PTSUNNY   76  65  67 SW23      29.92R
DE KALB*       PTSUNNY   75  62  65 SW20      29.93R
PERU*          MOSUNNY   79  62  56 SW20G26   29.94R HX  80
$$

ILZ005-006-012>014-019>023-252200-
NORTHEAST ILLINOIS

CITY           SKY/WX    TMP DP  RH WIND       PRES   REMARKS
CHICAGO-OHARE  PTSUNNY   77  61  57 SW12G26   29.91R
CHICAGO-MIDWAY PTSUNNY   79  62  56 SW15G26   29.92R HX  80
AURORA         PTSUNNY   79  61  53 SW18G28   29.92R HX  80
LANSING*       PTSUNNY   78  58  49 SW20G25   29.94S
JOLIET*        PTSUNNY   80  63  55 SW10      29.94R HX  82
WAUKEGAN       PTSUNNY   77  60  55 SW20G26   29.88R
DUPAGE AIRPORT PTSUNNY   77  62  59 SW16G26   29.92R
KANKAKEE*      PTSUNNY   81  60  50 SW16G23   29.96S HX  81
WHEELING       PTSUNNY   77  61  57 SW13G26   29.91R
MORRIS*        PTSUNNY   78  62  56 SW17G25   29.93R HX  80
ROMEOVILLE*    PTSUNNY   78  61  57 SW17G23   29.93S
NORTHERLY ISL    N/A     77  58  51 SW13        N/A
$$

LMZ740>746-252200-
SOUTHERN LAKE MICHIGAN

STATION/POSITION SKY/WX   TEMP    WIND        PRES    VSBY  WAVE
                          AIR SEA DIR/SP/G                  HT/PER
                          (F)     (DEG/KT/KT) (MB)    (MI)  (FT/S)
SOUTHERN BUOY              47 38  200/ 12/ 14 1012.4R         2/ 4
HARRISON CRIB              74     220/ 18/ 23   N/A
BURNHAM HARBOR             77     180/ 12/ 20   N/A
CALUMET HARBOR             75     210/ 10/ 19   N/A
BURNS HARBOR               76     230/ 16     1013.9R
MICHIGAN CITY              68     230/ 20/ 21   N/A
MICHIGAN CITY 6N           62 52  260/ 10/ 14   N/A           2/ 4
ST. JOSEPH                 61 55  270/ 12/ 14   N/A           3/ 4
$$

ILZ025>027-034>036-040-047-049-050-058-095>099-252200-
WEST-CENTRAL ILLINOIS

CITY           SKY/WX    TMP DP  RH WIND       PRES   REMARKS
QUINCY         MOSUNNY   80  63  55 SW14      29.93F HX  81
GALESBURG*     MOSUNNY   78  62  58 S17       29.92F
MACOMB*        MOSUNNY   80  61  52 S17       29.94F HX  81
JACKSONVILLE*  SUNNY     84  60  44 S16       29.95F HX  84
PITTSFIELD*    SUNNY     82  63  52 S14       29.95F HX  83
$$

ILZ028>032-037-038-041>044-048-051>054-059>061-252200-
CENTRAL ILLINOIS

CITY           SKY/WX    TMP DP  RH WIND       PRES   REMARKS
PONTIAC        PTSUNNY   81  63  53 SW18      29.96S HX  82
BLOOMINGTON    PTSUNNY   81  62  52 SW16      29.98S HX  82
DECATUR        PTSUNNY   81  60  48 SW14      29.98S HX  82
PEORIA         MOSUNNY   82  62  50 S15G23    29.95R HX  83
LACON*         SUNNY     78  62  56 SW12G20   29.94R HX  80
LINCOLN*       MOSUNNY   82  60  46 SW9G17    29.94S HX  83
SPRINGFIELD    MOSUNNY   83  62  49 S16       29.96S HX  84
TAYLORVILLE    MOSUNNY   79  63  57 S15G22    29.97F HX  80
$$

ILZ033-039-045-046-055>057-062-063-252200-
EAST-CENTRAL ILLINOIS

CITY           SKY/WX    TMP DP  RH WIND       PRES   REMARKS
CHAMPAIGN      CLOUDY    83  57  41 SW16      29.98F HX  82
DANVILLE*      PTSUNNY   82  60  47 S20       29.96S HX  82
RANTOUL*       PTSUNNY   84  57  40 S13G18    29.98R HX  83
MATTOON        CLOUDY    78  66  66 S13G22    30.01R HX  80
PARIS*         CLOUDY    81  64  57 S21G26    30.02S HX  82
$$

ILZ079-100>102-252200-
SOUTHWEST ILLINOIS

CITY           SKY/WX    TMP DP  RH WIND       PRES   REMARKS
ALTON          MOSUNNY   82  66  57 S12       29.97F HX  85
BELLEVILLE     PTSUNNY   83  70  65 S18       29.97S HX  86
CAHOKIA*       MOSUNNY   83  67  58 SE17G23   29.96F HX  85
SPARTA*        PTSUNNY   78  69  72 S14       30.01S HX  80
$$

ILZ064>066-069>071-074>076-080>082-084>086-088>090-092>094-252200-
SOUTH-CENTRAL ILLINOIS

CITY           SKY/WX    TMP DP  RH WIND       PRES   REMARKS
CARBONDALE     CLOUDY    78  68  71 S14       30.02F HX  80
CAIRO*         CLOUDY    76  69  78 SE13      30.05F
EFFINGHAM*     CLOUDY    79  62  55 S13       30.04S HX  80
MARION         PTSUNNY   75  68  78 SE12      30.07S
MT. VERNON     CLOUDY    79  66  65 S15       30.04F HX  81
CENTRALIA*     CLOUDY    81  65  58 S16       30.01F HX  83
SALEM*         CLOUDY    81  67  62 S15       30.02S HX  83
METROPOLIS*    CLOUDY    74  69  83 SE7       30.06F
$$

ILZ067-068-072-073-078-083-087-091-252200-
SOUTHEAST ILLINOIS

CITY           SKY/WX    TMP DP  RH WIND       PRES   REMARKS
LAWRENCEVILLE  CLOUDY    78  66  66 S17       30.05F HX  80
FLORA*         CLOUDY    78  66  64 S17       30.04S HX  80
FAIRFIELD*     CLOUDY    78  67  68 S14G21    30.03F HX  80
HARRISBURG*    LGT RAIN  75  70  84 S12       30.07S
ROBINSON*      CLOUDY    79  64  61 S15G22    30.05R HX  81
CARMI*         CLOUDY    77  63  61 S15       30.05F
$$

ABBREVIATIONS USED IN REMARKS
   TC - TEMPERATURE IN CELSIUS
  WCI - WIND CHILL INDEX
   HX - HEAT INDEX
  VSB - VISIBILITY
$$




USA.gov is the U.S. government's official web portal to all federal, state and local government web resources and services.